OpenBCM V1.08-5-g2f4a (Linux)

Packet Radio Mailbox

IZ3LSV

[San Dona' di P. JN]

 Login: GUEST





  
I0OJJ  > KEPS     20.05.25 02:44l 353 Lines 16917 Bytes #61 (0) @ AMSAT
BID : ORB25140.1
Read: GUEST
Subj: 2Line Orbital Elements 25140.AMSAT
Path: IZ3LSV<IK6IHL<IK7NXU<HB9ON<DK0WUE<PD0LPM<PI8ZTM<IQ5KG<I0OJJ
Sent: 250520/0025z @:I0OJJ.ITA.EU [Rome] obcm1.08-10-g596e
From: I0OJJ @ I0OJJ.ITA.EU (Gustavo)
To:   KEPS @ AMSAT
X-Info: This message was generated automatically


QST de W1STR

AMSAT Orbital Elements for Amateur Satellites in TLE Format
From Orbital Analysis Office
New England Sci-Tech STEM Education Center
Natick, MA May 20, 2025
To all radio amateurs


These element sets describe the orbits of various satellites 
in use by the amateur radio community. For details see:
www.amsat.org/keplerian-elements-formats/

A daily update of element sets is available at:
www.amsat.org/tle/daily-bulletin.txt
or without bulletin text:
www.amsat.org/tle/dailytle.txt


AO-07
1 07530U 74089B   25139.51252064 -.00000039  00000-0  47902-4 0  9997
2 07530 101.9935 143.5519 0012352 160.6130 320.5455 12.53689095311189
UO-11
1 14781U 84021B   25139.84110169  .00001547  00000-0  16876-3 0  9994
2 14781  97.7530 106.6229 0009137  52.4324 307.7722 14.89326759219554
AO-27
1 22825U 93061C   25139.44827716  .00000130  00000-0  66874-4 0  9996
2 22825  98.7376 200.8969 0008659 167.3368 192.8033 14.30792220650699
FO-29
1 24278U 96046B   25139.68124547 -.00000027  00000-0  75425-5 0  9993
2 24278  98.5782  36.3213 0350659  36.8916 325.5802 13.53247622420199
NOAA-15
1 25338U 98030A   25139.84610693  .00000211  00000-0  10436-3 0  9999
2 25338  98.5363 165.4752 0011347  63.9547 296.2801 14.26967441405446
GO-32
1 25397U 98043D   25139.54699132  .00000084  00000-0  56593-4 0  9993
2 25397  98.9694 118.2287 0000214 282.4968  77.6186 14.24309761395298
ISS
1 25544U 98067A   25139.89380258  .00006796  00000-0  12865-3 0  9996
2 25544  51.6355  87.2443 0002182 127.4208 232.6980 15.49614502510779
NO-44
1 26931U 01043C   25139.47929621  .00000125  00000-0  78046-4 0  9996
2 26931  67.0496 182.3960 0005878 274.3314  85.7116 14.31724077234087
SO-50
1 27607U 02058C   25139.76324262  .00001148  00000-0  16096-3 0  9998
2 27607  64.5531 264.7877 0053885 338.8142  21.0731 14.81571645206359
CO-55
1 27844U 03031E   25139.74078005  .00000338  00000-0  16648-3 0  9995
2 27844  98.6762 148.2831 0008454 244.8130 115.2173 14.23980134135706
CO-57
1 27848U 03031J   25138.97648813  .00000331  00000-0  16524-3 0  9999
2 27848  98.6791 147.5507 0008257 267.2139  92.8094 14.23316707135298
RS-22
1 27939U 03042A   25139.88898502  .00001313  00000-0  21585-3 0  9999
2 27939  98.3268 308.8436 0012705  77.6592  60.0094 14.72302277157783
NOAA-18
1 28654U 05018A   25139.81257672  .00000223  00000-0  14131-3 0  9997
2 28654  98.8420 219.5218 0014267 183.8990 176.2073 14.13600093 30819
CO-58
1 28895U 05043F   25138.95506102  .00001942  00000-0  32491-3 0  9999
2 28895  98.2470 283.0397 0014792  20.7945 339.3860 14.70945862 43764
CO-65
1 32785U 08021C   25139.58600727  .00005120  00000-0  37260-3 0  9990
2 32785  97.7850 110.5990 0007889 287.3612  72.6751 15.04230073925929
AAUSAT2
1 32788U 08021F   25139.47898875  .05116340  25891-5  17320-2 0  9990
2 32788  97.5740 138.9936 0009616 214.6221 145.4445 16.25524826930090
CO-66
1 32791U 08021J   25139.48452408  .00011501  00000-0  56526-3 0  9993
2 32791  97.7274 119.0656 0002127 209.4424 150.6690 15.18209777927298
RS-30
1 32953U 08025A   25139.79937555  .00000043  00000-0  23849-3 0  9993
2 32953  82.5037 240.0978 0020528  92.4746 267.8684 12.43164409770951
NOAA-19
1 33591U 09005A   25139.88646536  .00000201  00000-0  13122-3 0  9996
2 33591  98.9980 204.4738 0014692  65.0662 295.2035 14.13363755839184
SRMSAT
1 37841U 11058D   25139.83042139  .00000434  00000-0  92039-4 0  9996
2 37841  19.9725 280.1157 0011672 196.4756 320.3988 14.11429614702394
ZACUBE-1
1 39417U 13066B   25139.85901440  .00003873  00000-0  33951-3 0  9996
2 39417  97.7787  96.9881 0045614 120.0265 240.5494 14.96445004621811
Delfi-N3xt
1 39428U 13066N   25139.71843217  .00007738  00000-0  79026-3 0  9997
2 39428  97.8354  57.6069 0087262  69.6560 291.4006 14.88050329616155
GOMX-1
1 39430U 13066Q   25139.82723405  .00001651  00000-0  26389-3 0  9990
2 39430  97.6858 359.7642 0131112 258.8155  99.8288 14.67562141612362
LO-74
1 39440U 13066AA  25139.58873943  .00003809  00000-0  38967-3 0  9999
2 39440  97.8484  84.2980 0060483 248.9045 110.5699 14.89797352618311
AO-73
1 39444U 13066AE  25139.83083238  .00006888  00000-0  51920-3 0  9995
2 39444  97.7830 101.6689 0043667  96.4680 264.1519 15.02022267621060
DTUSAT-2
1 40030U 14033W   25139.45750246  .00007459  00000-0  48880-3 0  9997
2 40030  98.0548 110.2619 0010714 124.7127 235.5110 15.07979055593215
EO-80
1 40032U 14033Y   25139.47894611  .00006610  00000-0  43294-3 0  9998
2 40032  98.0419 109.9683 0010418  75.1076 285.1303 15.08049707593198
LILACSAT-2
1 40908U 15049K   25139.86389749  .00010485  00000-0  27847-3 0  9993
2 40908  97.5074 159.7167 0007954 224.5228 135.5379 15.38437226535042
IO-86
1 40931U 15052B   25038.81889873  .00001817  00000-0  15548-3 0  9993
2 40931   6.0001 108.1159 0012838 187.7041 172.2889 14.78568669506492
Horyu-4
1 41340U 16012D   25139.75443886  .00021165  00000-0  58087-3 0  9993
2 41340  30.9967 271.8979 0006530 193.4667 166.5804 15.36001965509584
Lapan A3
1 41603U 16040E   25139.83070459  .00003562  00000-0  12606-3 0  9995
2 41603  97.1376 145.2548 0010571 354.2704   5.8414 15.29718345494618
CAS-2T
1 41847U 16066G   25139.46972892  .00001069  00000-0  16249-3 0  9991
2 41847  98.4203 214.1149 0345217 242.2786 114.2993 14.43417890447978
CAS-4B
1 42759U 17034B   25139.87816976  .00053240  00000-0  61816-3 0  9993
2 42759  43.0071  85.0270 0018478 150.7413 209.4490 15.60750875439362
CAS-4A
1 42761U 17034D   25139.86304939  .00056597  00000-0  62883-3 0  9999
2 42761  43.0109  82.4823 0019808 154.8670 205.3162 15.61833276439381
TechnoSat
1 42829U 17042E   25139.52058526  .00002833  00000-0  22243-3 0  9994
2 42829  97.3934 309.2406 0013622 357.2948   2.8201 15.01604919427561
AO-91
1 43017U 17073E   25139.64314883  .00006567  00000-0  34161-3 0  9992
2 43017  97.5292  10.9486 0172103 237.6312 120.8158 15.04407774406067
S-Net D
1 43186U 18014G   25139.44992085  .00004961  00000-0  29565-3 0  9997
2 43186  97.5642  42.5729 0007475 305.6368  54.4165 15.11623455399188
S-Net B
1 43187U 18014H   25139.25645016  .00005169  00000-0  30801-3 0  9992
2 43187  97.5649  42.3523 0008097 299.9690  60.0736 15.11602658399156
S-Net A
1 43188U 18014J   25139.78134954  .00004402  00000-0  26267-3 0  9995
2 43188  97.5654  43.0189 0007956 298.9077  61.1354 15.11631200399232
S-Net C
1 43189U 18014K   25139.25879061  .00005196  00000-0  30956-3 0  9994
2 43189  97.5672  42.5125 0009406 291.1004  68.9220 15.11599670397705
Ten-Koh
1 43677U 18084G   25139.45688796  .00002538  00000-0  20669-3 0  9995
2 43677  98.0891 310.8754 0005774 352.9619   7.1522 15.00480357357072
PO-101
1 43678U 18084H   25139.81885446  .00002289  00000-0  19802-3 0  9997
2 43678  98.1019 315.1531 0007722   3.7372 356.3906 14.98235141357271
QO-100
1 43700U 18090A   25139.81020282  .00000153  00000-0  00000+0 0  9993
2 43700   0.0141 300.2228 0002097 157.0667  97.8985  1.00269100 23975
MinXSS-2
1 43758U 18099A   25139.73188241  .00014268  00000-0  57203-3 0  9999
2 43758  97.5022 205.7092 0011320 221.5379 138.4999 15.25065287353796
AO-95
1 43770U 18099N   25139.14580039  .00008565  00000-0  43814-3 0  9995
2 43770  97.4924 197.4729 0008944 287.3787  72.6467 15.16851580353300
RANGE-A
1 43773U 18099R   25139.84516212  .00003867  00000-0  24894-3 0  9994
2 43773  97.4495 188.8493 0009594 260.5777  99.4368 15.08900751353091
MOVE-II
1 43780U 18099Y   25139.20182958  .00162124  00000-0  14590-2 0  9991
2 43780  97.4661 213.3331 0006575 203.5006 156.5955 15.67682150354449
SNUSat 2
1 43782U 18099AA  25139.39723374  .00007187  00000-0  39555-3 0  9992
2 43782  97.4606 194.6443 0011215 219.7252 140.3159 15.14292946353295
SnugLite
1 43784U 18099AC  25139.64240041  .00008770  00000-0  44466-3 0  9993
2 43784  97.4422 194.4041 0002945 199.3901 160.7221 15.17179297353460
ITASat 1
1 43786U 18099AE  25139.71023558  .00005988  00000-0  34531-3 0  9995
2 43786  97.4575 194.5218 0012745 278.1075  81.8710 15.12670900353306
EAGLET 1
1 43790U 18099AJ  25139.39669291  .00003813  00000-0  24570-3 0  9991
2 43790  97.4774 194.2405 0010381 259.8451 100.1607 15.08875047352870
ESEO
1 43792U 18099AL  25139.49115487  .00002204  00000-0  17004-3 0  9994
2 43792  97.4463 187.8745 0011891 234.5805 125.4310 15.02519548352654
CSIM
1 43793U 18099AM  25139.81593373  .00149522  00000-0  13689-2 0  9994
2 43793  97.4824 216.2258 0007682 198.8166 161.2811 15.67285707354381
JO-97
1 43803U 18099AX  25139.72394815  .00010445  00000-0  48256-3 0  9996
2 43803  97.4668 198.9929 0007184 205.1205 154.9682 15.20353810353602
Suomi 100
1 43804U 18099AY  25139.70529603  .00009155  00000-0  45288-3 0  9998
2 43804  97.4737 198.3288 0011898 213.2549 146.7938 15.17979667353535
ISAT
1 43879U 18111D   25139.75587134  .00017548  00000-0  62234-3 0  9998
2 43879  97.5966  53.7005 0006324 271.8445  88.2070 15.29125742348492
UWE-4
1 43880U 18111E   25139.68272258  .00013200  00000-0  52601-3 0  9998
2 43880  97.5909  52.2470 0009899 287.5906  72.4250 15.25306045348440
Sparrow
1 43881U 18111F   25139.75425175  .00018643  00000-0  63764-3 0  9993
2 43881  97.6107  56.4970 0005322 330.4501  29.6437 15.30300759348600
Prox-1
1 44339U 19036A   25139.51076264  .00009585  00000-0  12177-2 0  9990
2 44339  23.9960 200.1510 0007250 186.3820 173.6585 14.79541482314890
SONATE
1 44400U 19038Q   25139.79979992  .00186383  00000-0  79689-3 0  9995
2 44400  97.6919 164.1195 0001387 275.8916  84.2195 15.84664720326271
Taurus 1
1 44530U 19059C   25139.83697256  .00005516  00000-0  10243-2 0  9995
2 44530  98.6049 278.2522 0010706 104.2424 255.9968 14.65592413300909
